Temp
18 17 18 18 18 20 20 19 19 20 22 22 21 19 21 18 17 15 15 15 13 13 13 13 12 11 11 11 11 11 11 12 13 13 13 14 14 15 15 16 16 16 17 16
19 18 21 19 18 19 19 18 19 19 21 21 20 20 21 17 17 16 15 13 13 14 13 13 12 12 11 11 11 11 11 11 12 12 13 13 14 13 14 16 16 18 17 16
18 20 21 20 19 19 19 18 19 19 21 20 22 20 21 19 18 17 14 14 14 13 13 14 13 12 11 11 11 11 11 12 12 12 13 13 12 13 14 16 15 15 16 16
18 20 20 20 20 20 19 20 21 20 19 20 21 18 19 20 18 17 15 13 13 13 13 14 13 12 11 11 11 11 11 12 12 12 12 12 13 13 14 14 15 15 16 16
18 19 19 19 20 20 20 21 20 20 20 20 21 19 18 18 18 17 16 14 13 13 13 13 12 11 11 11 11 11 11 11 11 11 12 12 13 14 14 15 15 15 16 16
18 20 20 21 21 21 22 21 21 19 19 18 20 19 18 18 20 19 18 16 15 13 13 13 12 12 11 11 11 11 11 11 12 12 12 13 13 14 14 15 15 15 16 15
19 19 20 21 20 21 20 19 17 17 17 17 18 18 19 21 21 21 19 18 16 15 13 13 12 12 12 11 10 11 11 11 12 12 12 13 13 13 14 14 15 15 16 16
17 17 19 20 20 19 18 19 16 18 16 18 19 18 20 21 22 20 20 20 18 15 15 14 13 13 13 12 11 11 11 11 11 11 11 12 12 13 13 14 15 15 16 17
16 17 20 21 21 21 19 19 21 18 17 16 17 19 20 21 21 22 19 18 17 16 15 15 15 14 13 13 12 12 12 12 12 11 12 12 12 12 13 14 14 15 15 15
17 17 20 21 20 20 21 20 19 17 17 17 17 19 19 21 23 22 19 18 18 17 16 16 16 15 15 14 13 13 12 12 12 12 12 12 13 13 13 13 13 13 14 14
15 15 18 21 19 19 19 20 20 19 16 18 17 17 19 20 21 23 22 19 18 18 17 17 16 17 16 15 14 13 13 13 13 13 13 13 13 13 13 13 13 14 14 14
14 15 16 18 20 21 21 21 21 18 18 16 16 18 21 19 20 21 23 21 18 18 18 17 17 17 16 16 15 14 13 13 14 14 14 14 14 14 14 13 13 13 13 13
12 12 14 17 18 20 20 20 20 18 17 16 16 17 21 21 20 21 21 20 20 18 17 18 18 17 17 16 16 15 14 14 14 14 15 15 15 14 14 14 13 14 13 12
11 12 13 16 18 18 19 21 21 20 16 17 18 19 21 21 20 21 22 20 19 19 18 18 17 18 18 18 17 16 16 15 15 14 15 15 15 15 15 14 13 13 12 13
11 12 14 16 19 20 20 20 20 20 19 19 20 19 21 20 20 21 21 21 21 20 19 17 18 18 18 18 18 17 16 16 15 15 15 15 15 14 14 14 14 13 13 14
11 11 12 15 17 20 20 20 20 19 19 19 20 20 20 21 20 20 21 21 20 20 19 18 18 17 16 17 17 17 17 16 16 15 15 15 15 14 14 13 13 12 12 11
9 11 12 14 17 18 16 18 20 21 20 20 19 19 21 20 20 20 20 19 19 20 19 19 17 18 18 16 17 16 15 15 15 15 13 12 12 12 12 12 12 12 11 11
11 10 10 12 15 15 18 19 20 19 21 20 21 21 21 21 20 20 19 19 19 19 18 16 14 12 11 11 12 12 11 11 12 11 10 11 11 12 12 11 11 11 10 9
12 12 11 12 13 15 17 17 18 18 18 20 21 21 21 21 20 21 20 19 18 17 15 13 12 10 10 10 10 10 10 10 10 10 10 10 10 10 10 9 8 8 7 7
12 12 12 11 12 13 15 18 19 19 17 20 21 20 20 20 18 18 19 18 16 13 11 10 9 9 9 9 10 10 9 10 9 9 9 9 9 9 8 8 7 6 6 6
11 10 12 11 12 12 14 15 17 14 15 18 21 19 19 19 18 18 15 15 12 11 9 9 9 8 8 8 9 8 8 8 8 8 8 8 8 7 7 6 6 6 5 4
11 11 10 10 10 11 16 16 17 16 16 18 20 21 19 19 17 15 15 12 11 10 9 9 8 8 8 9 9 7 7 7 7 7 6 6 6 5 5 5 4 4 4 2
11 12 11 12 11 13 15 18 18 17 17 18 17 19 19 17 15 14 12 11 11 10 9 9 8 7 8 9 9 7 6 7 6 5 5 5 5 4 4 3 2 2 1 -1
13 13 12 13 14 14 15 15 16 16 18 18 18 16 16 15 14 12 11 10 9 9 9 8 7 5 5 6 7 6 5 6 5 3 3 3 3 2 2 1 1 0 -1 -1
13 13 13 13 14 15 16 16 16 17 18 18 17 18 16 14 13 12 10 9 8 6 5 4 3 3 3 4 4 4 5 6 3 1 -0 -1 -2 -2 -2 -2 -2 -2 -2 -2
13 14 12 13 15 15 15 17 16 15 16 16 17 17 16 15 12 11 8 7 4 3 2 1 1 0 -0 0 1 1 2 2 0 -2 -2 -3 -3 -2 -2 -2 -4 -4 -4 -4
Height
749 762 758 756 763 761 764 769 770 754 739 750 744 742 727 734 736 738 738 737 744 749 748 751 754 755 757 758 761 763 765 768 774 779 784 787 788 791 797 805 809 811 814 817
752 753 738 749 757 762 765 772 768 754 740 747 741 738 726 732 729 729 733 738 739 743 745 747 753 754 758 761 763 765 768 772 776 780 785 787 789 793 801 804 807 809 813 815
749 737 733 745 752 759 759 767 763 761 743 741 737 744 728 724 726 728 735 737 736 738 742 746 750 754 755 758 762 765 769 773 778 782 786 791 794 798 801 802 805 807 809 811
746 731 734 741 746 748 760 744 747 750 758 760 736 766 739 724 730 729 732 737 737 735 736 741 746 749 754 759 762 761 766 771 777 784 787 788 793 797 799 800 803 804 805 808
736 732 735 740 735 739 744 735 744 744 748 750 745 758 741 729 733 728 726 730 733 735 733 736 740 748 751 756 758 761 764 767 774 779 782 784 789 792 796 797 798 800 804 809
729 720 726 726 722 731 726 737 738 743 748 763 746 752 746 735 718 712 715 719 725 730 734 735 738 744 747 750 754 757 758 763 768 773 778 781 783 787 789 792 794 797 801 804
730 728 724 719 731 726 734 748 771 772 765 764 746 753 735 711 704 699 703 707 713 722 730 733 735 737 741 745 751 754 759 759 763 769 773 776 779 783 785 787 789 790 793 794
739 743 725 718 724 732 735 742 765 763 772 756 742 750 727 698 690 692 688 691 704 716 720 724 728 733 736 739 742 748 750 752 758 764 768 772 775 776 779 780 782 783 785 787
738 733 708 703 708 717 726 736 724 744 747 758 747 730 710 695 690 686 690 697 701 705 712 714 721 725 730 733 735 739 745 750 756 760 765 767 769 770 773 773 776 778 782 784
724 729 708 700 702 702 707 713 735 744 755 759 746 737 732 706 691 689 693 694 696 699 705 711 714 718 720 726 733 738 743 749 754 759 761 762 763 766 769 771 772 773 775 778
736 734 720 702 708 712 715 717 716 718 736 739 753 742 708 701 692 687 686 688 690 694 697 701 703 708 713 723 727 732 737 743 748 751 754 757 758 761 763 764 765 767 771 772
741 728 725 712 696 691 696 698 705 727 729 732 739 728 691 693 689 686 680 682 687 689 688 692 696 701 709 713 720 723 729 732 735 740 747 746 749 753 755 755 758 763 765 764
752 740 734 714 707 691 699 698 697 705 715 724 735 725 686 685 688 679 684 683 680 684 689 690 695 699 701 705 711 716 720 722 729 735 736 739 741 743 744 748 751 753 757 763
750 743 731 716 706 696 696 690 691 695 719 716 708 704 691 686 687 679 676 678 679 679 682 684 688 690 692 696 700 704 707 711 717 722 726 729 731 731 735 741 745 748 749 753
751 738 718 702 690 685 685 688 689 694 695 702 695 697 685 682 681 675 672 671 673 677 680 681 681 682 684 689 692 696 699 704 707 711 716 717 722 726 731 735 737 739 741 742
744 735 725 703 688 680 682 679 682 687 688 689 687 684 673 667 670 672 669 668 672 669 670 674 674 676 678 679 682 685 690 693 698 703 707 712 716 721 724 728 732 735 736 738
744 736 724 705 686 687 698 677 677 675 676 680 690 679 665 670 669 667 663 663 663 664 665 666 669 668 670 674 678 682 687 691 696 700 705 709 713 717 720 723 727 730 733 735
730 734 735 717 697 706 674 665 666 673 667 671 672 664 663 659 655 654 653 654 656 660 662 664 665 670 674 676 679 682 687 691 695 699 704 708 712 715 718 721 724 727 729 732
715 720 725 716 702 686 673 671 671 673 671 662 664 659 655 654 652 651 648 648 649 654 657 663 667 672 676 679 681 685 690 694 698 703 707 710 713 716 718 721 724 727 729 732
703 710 713 721 713 699 678 660 660 665 681 656 654 656 658 658 671 663 648 648 653 658 662 667 671 675 680 684 686 689 694 698 701 704 708 711 713 716 719 723 727 729 731 734
709 712 707 711 709 700 676 667 666 696 684 654 644 653 651 661 655 649 650 653 658 662 667 672 677 680 685 689 691 695 699 703 706 709 712 715 718 720 723 725 728 730 733 736
707 711 712 714 720 712 664 661 669 667 656 652 646 646 649 644 647 652 655 658 661 666 672 676 680 686 690 693 695 699 704 708 710 714 717 720 723 725 727 728 731 733 735 739
710 694 697 703 702 674 665 656 652 659 658 655 655 646 642 646 651 654 659 662 665 671 676 681 685 690 695 697 699 703 710 712 715 718 721 724 727 729 731 733 736 739 742 745
686 681 690 688 672 672 663 659 656 660 652 650 651 653 647 649 656 658 663 668 671 676 681 685 690 695 699 703 706 710 714 717 720 724 728 730 731 734 737 739 743 745 749 752
684 680 679 677 667 663 655 654 653 650 648 651 652 649 647 652 658 658 670 675 677 682 687 691 696 701 706 709 712 716 719 720 724 729 733 735 737 739 742 746 750 752 755 757
675 673 677 673 661 663 658 650 647 656 651 650 650 652 649 652 658 663 675 683 686 691 695 699 706 709 714 714 718 723 725 726 728 733 739 743 744 748 750 753 756 758 760 761
Wind_Speed
6 4 15 13 8 3 2 4 5 12 18 4 16 9 12 9 7 7 10 9 7 7 7 12 13 15 15 18 21 25 25 30 35 30 27 28 27 33 27 22 23 23 22 20
3 13 12 7 7 7 6 7 11 10 15 3 12 11 5 9 8 10 13 9 6 7 7 10 13 16 18 20 23 23 25 27 25 25 23 23 29 33 32 26 24 24 24 21
12 7 13 9 6 9 10 10 9 8 16 9 3 7 7 3 3 6 6 5 5 8 9 11 12 15 16 19 22 25 28 31 29 28 26 23 21 26 26 30 27 24 25 22
8 13 12 6 13 13 13 11 13 11 6 5 2 5 6 4 4 6 7 9 9 10 7 11 13 15 19 22 24 27 32 32 31 29 30 28 26 25 27 30 29 23 22 22
8 7 17 17 18 11 12 7 10 11 7 2 2 2 6 3 5 9 12 13 13 13 11 12 13 20 21 20 27 27 29 34 32 31 31 32 28 29 30 30 28 25 26 29
8 3 8 13 15 12 11 5 4 3 3 2 4 4 5 5 7 5 9 14 16 15 12 10 15 18 20 24 27 30 29 31 35 34 34 34 30 31 31 33 29 32 34 34
8 12 3 2 6 5 5 3 2 4 2 5 6 3 9 8 7 8 13 16 16 16 15 13 14 15 19 27 29 30 33 32 37 39 41 42 40 38 36 36 35 33 37 36
13 11 12 6 10 6 8 9 5 6 4 4 3 5 6 7 6 7 12 15 13 14 14 16 16 19 21 23 28 30 29 30 33 37 40 42 41 37 37 37 36 36 37 41
5 7 5 12 11 13 6 8 9 4 2 2 4 6 9 8 8 4 7 8 13 15 15 18 16 22 22 25 29 31 29 29 31 35 36 38 39 39 37 38 36 39 42 42
5 10 8 6 8 12 12 5 2 1 7 5 3 4 6 8 4 4 7 12 14 15 15 14 15 23 28 28 28 31 33 33 33 32 36 36 38 40 40 34 38 39 40 41
6 4 10 3 7 7 5 12 3 4 5 8 2 5 8 10 9 4 5 9 14 16 17 18 18 27 30 27 31 34 37 37 35 35 35 36 38 38 37 37 38 41 39 42
6 5 8 23 13 2 5 14 13 6 4 3 4 7 5 9 8 7 3 6 6 11 17 17 18 24 26 30 30 35 37 41 43 40 36 40 39 36 36 40 39 37 39 42
11 5 4 4 7 17 12 5 5 3 2 8 7 6 4 3 8 4 7 7 7 9 7 12 12 15 22 29 31 34 37 42 41 40 39 36 37 37 39 39 37 40 38 27
8 7 12 12 7 7 5 9 6 7 5 3 8 6 6 7 9 8 5 7 9 8 11 11 8 13 20 27 31 34 38 41 41 40 40 38 38 41 42 37 33 33 30 28
3 9 11 12 17 12 3 5 4 4 6 10 7 11 11 10 9 9 9 8 4 8 8 10 13 13 13 19 26 30 33 34 37 38 37 39 37 33 33 34 36 34 35 41
7 5 15 11 8 17 18 15 10 9 6 8 7 10 8 10 8 6 10 8 9 11 9 10 10 9 11 17 23 27 29 32 33 32 31 30 30 29 30 31 29 29 31 30
2 2 5 6 4 4 5 16 16 15 4 4 8 8 6 7 9 10 9 9 10 9 10 9 9 11 9 10 17 18 18 21 25 25 22 22 23 23 22 22 24 28 26 23
7 4 2 4 2 5 4 8 13 14 18 11 9 6 9 12 9 7 7 9 9 7 8 7 5 5 6 6 10 11 11 12 16 18 17 16 14 14 16 18 21 20 21 23
15 6 2 2 4 4 2 5 9 9 11 11 12 9 7 5 0 3 2 4 7 8 5 5 8 9 9 11 14 15 14 14 15 15 14 13 14 15 15 16 16 16 18 17
10 12 7 2 6 8 2 6 4 9 10 10 10 11 7 3 4 5 5 4 7 8 7 9 13 13 13 11 12 15 14 13 11 9 9 8 9 11 13 13 12 12 14 16
2 2 8 5 3 7 9 6 2 5 7 4 4 6 6 5 6 1 7 5 6 9 13 18 15 13 13 14 16 16 15 13 10 9 9 8 6 6 8 10 12 15 18 20
4 4 2 3 2 6 5 2 2 5 6 5 4 8 6 7 4 6 5 8 11 12 11 15 15 15 14 13 16 16 14 12 11 11 11 10 10 10 11 14 14 16 19 21
3 6 6 9 6 6 5 3 3 4 1 2 5 7 5 3 3 6 6 8 9 10 12 14 16 17 15 12 14 18 14 15 20 21 20 20 19 18 17 18 17 18 17 19
5 5 3 2 9 16 10 6 4 8 5 6 4 6 1 6 6 7 7 7 8 8 11 17 19 17 17 17 20 22 22 22 23 24 22 21 22 22 21 20 19 19 17 18
6 6 7 6 7 7 12 7 8 9 7 4 9 4 2 8 5 9 7 6 9 12 18 20 19 20 21 25 25 23 23 23 26 24 23 24 26 27 28 27 23 22 18 14
5 6 4 6 9 4 7 6 6 10 8 9 7 7 0 5 7 13 10 8 12 15 20 22 21 24 22 28 27 22 21 25 29 26 22 23 26 25 22 19 18 16 13 10
Wind_Direction
183 156 220 206 204 176 208 275 267 278 283 251 268 250 263 187 203 178 213 234 187 172 145 147 155 160 160 155 158 163 153 151 157 155 158 158 156 161 158 169 174 172 183 186
208 225 230 168 192 220 230 248 265 289 272 199 261 258 275 180 217 192 193 216 206 169 152 156 165 162 165 162 165 166 172 165 163 167 173 164 161 163 184 182 189 183 195 194
213 203 199 189 185 219 235 225 255 221 293 256 303 305 288 187 172 155 153 204 213 209 171 177 186 181 169 165 170 171 170 174 179 184 183 185 175 183 205 197 205 204 207 204
233 231 248 199 220 198 242 213 241 262 279 247 130 268 286 245 210 205 176 189 207 217 208 189 191 191 186 182 177 178 184 187 189 191 187 182 191 201 211 211 215 215 212 218
221 207 212 226 228 183 238 223 235 249 246 152 280 308 266 108 229 228 207 196 200 214 206 206 194 191 187 187 190 193 189 190 194 195 195 191 197 206 209 216 224 220 220 224
221 290 189 222 235 198 248 298 312 358 179 201 203 178 271 213 211 221 215 206 194 196 209 217 209 193 187 197 197 196 192 195 199 204 207 207 209 212 216 225 228 230 229 231
246 252 279 197 213 179 165 158 286 296 252 220 189 203 244 250 224 224 200 209 202 186 191 196 201 204 187 184 192 195 200 200 206 210 210 213 216 218 218 221 228 233 235 239
215 257 214 197 203 186 196 182 179 219 218 242 163 238 250 229 262 233 207 207 183 192 190 199 197 201 208 197 193 196 200 203 207 214 216 218 220 224 228 227 230 237 242 245
195 241 247 201 191 194 215 217 205 192 6 82 223 286 305 278 273 270 198 153 191 195 195 204 197 199 201 206 206 205 206 211 212 216 218 221 223 223 226 230 235 239 241 244
264 265 233 236 188 216 195 178 135 4 191 235 266 257 236 290 243 227 156 188 200 201 206 209 203 202 207 205 205 207 212 216 216 216 218 221 225 227 230 234 236 236 240 244
299 263 264 321 203 182 168 234 250 170 158 215 214 255 214 238 229 240 220 201 196 197 202 205 209 209 208 203 204 204 209 213 217 219 221 225 228 230 232 234 237 239 238 242
353 274 229 242 258 187 216 208 204 205 216 210 179 240 225 245 219 195 238 227 207 212 205 201 205 204 203 207 206 206 208 212 214 218 221 226 228 230 231 234 234 235 233 236
6 330 291 264 269 257 248 207 199 134 112 195 188 248 271 224 281 262 207 229 229 202 206 204 202 201 205 206 207 209 211 216 218 220 225 228 227 224 227 229 231 235 234 226
37 252 232 248 245 189 190 199 201 175 192 180 223 224 251 235 235 263 260 215 201 207 209 203 195 204 206 207 206 209 213 213 214 216 219 224 225 224 226 228 227 223 215 217
117 270 278 280 238 242 178 197 236 226 224 206 205 222 232 216 222 225 237 268 256 210 196 208 208 211 211 201 207 210 217 214 211 213 216 222 226 227 226 228 230 228 229 218
165 269 309 281 248 224 236 249 248 243 271 258 252 236 226 242 217 238 218 212 209 221 201 203 211 203 211 204 202 205 210 209 207 208 212 216 217 219 222 226 219 210 221 224
191 252 302 250 274 218 258 221 232 256 195 240 213 218 241 248 223 236 242 219 209 190 202 216 192 212 215 200 206 205 206 204 200 200 200 207 207 205 201 207 214 220 223 228
204 264 299 292 139 226 256 177 211 235 243 246 253 267 247 236 236 250 222 200 211 196 199 169 143 122 121 120 150 171 182 184 173 171 180 191 191 189 197 205 206 212 221 213
213 187 252 251 233 294 254 202 199 206 245 243 228 244 270 262 259 333 283 222 195 181 159 115 115 111 107 116 129 133 126 136 137 140 154 167 179 185 191 196 199 199 189 179
183 214 185 148 265 218 261 231 53 23 253 256 196 220 224 166 128 244 176 126 110 95 88 100 100 105 108 123 131 121 118 125 119 136 148 165 173 179 182 190 182 164 165 154
126 189 207 177 247 289 251 259 296 136 236 307 104 278 137 190 204 245 131 102 88 103 108 117 118 107 121 128 118 106 107 95 126 134 134 137 147 160 174 161 161 158 151 140
169 182 197 101 61 285 237 352 152 252 234 302 266 242 247 193 164 143 140 122 112 108 108 114 106 108 120 120 120 109 103 119 120 116 109 101 100 110 131 138 139 137 136 130
210 199 167 182 231 258 281 274 134 282 206 247 318 288 212 174 171 126 122 104 106 113 108 108 109 102 100 108 121 110 109 113 104 101 98 102 102 99 106 110 113 114 123 120
229 174 222 131 243 246 264 261 204 224 214 315 307 297 140 103 117 98 91 102 105 103 102 103 93 79 72 94 102 99 109 119 113 103 103 104 101 95 92 95 101 107 107 107
247 176 190 249 288 290 279 242 247 249 199 220 284 268 157 139 144 114 129 110 102 90 85 91 93 88 81 90 96 114 123 126 112 102 95 91 93 96 93 88 86 88 83 91
225 227 181 241 262 206 267 283 155 247 216 232 209 261 234 133 110 109 94 91 93 93 94 89 85 85 82 85 85 95 111 118 110 93 86 88 90 91 90 91 85 74 76 75